Location: Debolt
(55.2626°N, 118.0981°W)
Time: 15:18:28
(UTC+00:00)

BlueWalker 3 - Visible Passes

Search period start: 09 June 2023 00:00
Search period end: 19 June 2023 00:00
Orbit: 494 x 513 km, 53.2° (Epoch: 08 June)

Date Brightness Start Highest point End Pass type
(mag) Time Alt. Az. Time Alt. Az. Time Alt. Az.
09 Jun 3.4 06:51:30 10° W 06:54:27 21° SW 06:56:12 16° S visible
10 Jun 3.5 06:31:04 10° W 06:33:59 21° SW 06:36:05 14° S visible
11 Jun 3.6 06:10:37 10° W 06:13:30 20° SW 06:16:00 12° S visible
12 Jun 3.6 05:50:09 10° W 05:53:01 20° SW 05:55:53 10° SSE visible
13 Jun 3.7 05:29:41 10° W 05:32:31 20° SW 05:35:21 10° S visible
